Starlink 4567

operational
NORAD ID: 53970 Int'l Des: 2022-125 Owner: SPXS Country: US Constellation: starlink
LEOCIRCULAR

About Starlink 4567

Description loading...

Live Position

Loading 3D Globe...

Upcoming Passes

Altitude History

Altitude vs Time

uPlot chart will show altitude changes over time

Two-Line Element Set

1 53970U 22125G 25310.69398934 .00000763 00000-0 66004-4 0 9994
2 53970 53.2181 51.3084 0001696 94.8230 265.2956 15.08844494170836
Epoch: Nov 6, 2025 • Age: 11 hours

Current Status

Altitude 544.4 km
Velocity 7.60 km/s
Sub-Earth Point 49.39°N, 1.24°E
Launch Date Oct 5, 2022
Age 3 years
Type internet

Technical Details

Classification Payload
Mass 305.00 kg
Dry Mass 290.00 kg
Total Mass 305.00 kg
Length 0.20 m
Diameter 2.80 m
Span 9.00 m
Shape Box + pan
Manufacturer SPXS
Bus Type Starlink
Phase Status In Orbit
Owner/State SPXS/US

Large Constellations

Loading constellations...